Printer-friendly version

IAU Minor Planet Center

Minor Planet Center

MPEC 2006-R03 : 2005 TB190

The following Minor Planet Electronic Circular may be linked-to from your own Web pages, but must not otherwise be redistributed electronically.


Read MPEC 2006-R02 Read MPEC 2006-R04


M.P.E.C. 2006-R03                                Issued 2006 Sept. 1, 12:55 UT

     The Minor Planet Electronic Circulars contain information on unusual
         minor planets and routine data on comets.  They are published
   on behalf of Commission 20 of the International Astronomical Union by the
          Minor Planet Center, Smithsonian Astrophysical Observatory,
                          Cambridge, MA 02138, U.S.A.

                  Supported in part by the Brinson Foundation
                  Supported in part by the TABASGO Foundation
             Prepared using the Tamkin Foundation Computer Network

                              MPC@CFA.HARVARD.EDU
          URL http://cfa-www.harvard.edu/iau/mpc.html  ISSN 1523-6714

                                  2005 TB190

                           Revision to MPEC 2006-Q71

Additional Observations:
     K05TJ0B  C2001 11 18.11662 22 02 47.27 +01 13 24.3          21.5 V ER003705
     K05TJ0B  C2001 11 18.11994 22 02 47.27 +01 13 24.2          22.5   ER003705
     K05TJ0B  C2002 09 04.37156 22 10 34.35 +01 45 38.6          20.8 R ER003644
     K05TJ0B  C2002 09 04.39269 22 10 34.23 +01 45 37.1          20.8 R ER003644
     K05TJ0B  C2002 09 04.41405 22 10 34.18 +01 45 36.7          20.5 R ER003644
     K05TJ0B  C2002 09 12.19475 22 10 05.22 +01 41 38.4          20.7 R ER003644
     K05TJ0B  C2002 09 12.21483 22 10 05.14 +01 41 37.8          21.0 R ER003644

Observer details:
644 Palomar Mountain/NEAT.  Observers R. Bambery, E. Helin, S. Pravdo,
    M. Hicks, K. Lawrence, R. Thicksten.  Measurer R. J. Bouma.  1.2-m Schmidt
    + CCD.
705 Apache Point.  Observer SDSS Collaboration.  Measurers A. C. Becker,
    A. W. Puckett, J. Kubica.  2.5-m f/5 Ritchey-Chretien + CCD.

Orbital elements:
2005 TB190
Epoch 2006 Sept. 22.0 TT = JDT 2454000.5                MPC
M 354.48172              (2000.0)            P               Q
n   0.00149919     Peri.  171.33800     +0.98953936     +0.14422724
a  75.6074068      Node   180.41285     -0.14384918     +0.98814279
e   0.3889360      Incl.   26.51686     +0.01092056     -0.05265301
P 657              H    4.7           G   0.15           U   4
Residuals in seconds of arc
011118 705  0.0   0.0     051027 705  0.0   0.0     051107 705  0.0   0.0
011118 705  0.0   0.0     051027 705  0.0   0.0     051111 705  0.0   0.2+
020904 644  0.2+  0.5+    051030 705  0.1+  0.0     051111 705  0.1+  0.0
020904 644  0.4-  0.4-    051030 705  0.0   0.0     051113 705  0.2-  0.3-
020904 644  0.1+  0.2-    051101 705  0.1+  0.1-    051113 705  0.2-  0.2-
020912 644  0.1+  0.1+    051101 705  0.0   0.0     051123 705  0.1-  0.1+
020912 644  0.0   0.1+    051103 705  0.1-  0.0     051123 705  0.1-  0.2+
051011 705  0.1+  0.0     051103 705  0.0   0.0     051126 705  0.0   0.0
051011 705  0.0   0.0     051105 705  0.0   0.0     051126 705  0.0   0.1+
051020 705  0.0   0.0     051105 705  0.1+  0.1+    051201 705  0.1+  0.1+
051020 705  0.1+  0.1-    051106 705  0.1+  0.0     051201 705  0.1-  0.1-
051025 705  0.0   0.0     051106 705  0.1+  0.1-
051025 705  0.0   0.1+    051107 705  0.1-  0.0

Ephemeris:
2005 TB190               a,e,i = 75.61, 0.39, 27                 q = 46.201
Date    TT    R. A. (2000) Decl.     Delta      r     Elong.  Phase     V
2006 08 23    22 32.91   +01 36.2   45.590   46.570   165.3     0.3    21.4
2006 09 02    22 32.26   +01 31.5   45.574   46.568   170.0     0.2    21.4
2006 09 12    22 31.63   +01 26.5   45.586   46.566   166.7     0.3    21.4
2006 09 22    22 31.02   +01 21.2   45.626   46.564   158.8     0.4    21.4
2006 10 02    22 30.46   +01 15.8   45.695   46.562   149.7     0.6    21.5
2006 10 12    22 29.99   +01 10.6   45.789   46.560   140.2     0.8    21.5
2006 10 22    22 29.61   +01 05.6   45.906   46.558   130.4     0.9    21.5
2006 11 01    22 29.34   +01 01.1   46.043   46.556   120.6     1.1    21.5
2006 11 11    22 29.19   +00 57.1   46.195   46.554   110.7     1.1    21.5
2006 11 21    22 29.18   +00 53.8   46.358   46.552   100.7     1.2    21.5
2006 12 01    22 29.31   +00 51.2   46.526   46.550    90.8     1.2    21.6
2006 12 11    22 29.57   +00 49.5   46.695   46.548    80.8     1.2    21.6
2006 12 21    22 29.97   +00 48.7   46.859   46.546    70.9     1.1    21.6
2006 12 31    22 30.49   +00 48.8   47.013   46.544    61.0     1.1    21.6
2007 01 10    22 31.12   +00 49.8   47.153   46.542    51.2     0.9    21.6
2007 01 20    22 31.85   +00 51.6   47.274   46.541    41.4     0.8    21.5
2007 01 30    22 32.66   +00 54.2   47.373   46.539    31.8     0.6    21.5

Brian G. Marsden             (C) Copyright 2006 MPC           M.P.E.C. 2006-R03

Read MPEC 2006-R02 Read MPEC 2006-R04


Our Web policy. Index to the CBAT/MPC/ICQ pages.


Valid HTML 4.01!